Location: *
(44.1392°N, 4.8079°E)
Time: 08:17:27
(UTC+00:00)

Meteor 2-21 Rocket - Pass Details

Date: 21 June 2021
Orbit: 935 x 968 km, 82.5° (Epoch: 01 August)

Event Time Altitude Azimuth Distance (km) Brightness Sun altitude
Exits shadow 02:31:03 12° 190° (S) 2,552 6.2 -12.2°
Maximum altitude 02:36:51 82° 279° (W) 973 4.5 -11.5°
Drops below altitude 10° 02:43:05 10° 7° (N) 2,711 7.7 -10.8°
Sets 02:45:37 0° 8° (N) 3,665 8.5 -10.5°
